TimeEDT,TemperatureF,Dew PointF,Humidity,Sea Level PressureIn,VisibilityMPH,Wind Direction,Wind SpeedMPH,Gust SpeedMPH,PrecipitationIn,Events,Conditions,WindDirDegrees,DateUTC
12:54 AM,64.0,60.1,87,30.01,10.0,SSW,4.6,-,N/A,,Clear,200,2013-04-11 04:54:00
1:54 AM,63.0,61.0,93,30.01,10.0,SSW,3.5,-,N/A,,Clear,200,2013-04-11 05:54:00
2:54 AM,61.0,60.1,97,29.99,10.0,South,3.5,-,N/A,,Clear,190,2013-04-11 06:54:00
3:54 AM,61.0,60.1,97,29.98,9.0,SSW,3.5,-,N/A,,Clear,200,2013-04-11 07:54:00
4:54 AM,61.0,60.1,97,29.99,8.0,SSW,3.5,-,N/A,,Clear,200,2013-04-11 08:54:00
5:37 AM,59.0,57.2,94,29.99,1.8,South,3.5,-,N/A,,Clear,190,2013-04-11 09:37:00
5:46 AM,59.0,59.0,100,29.99,3.0,South,3.5,-,N/A,,Clear,190,2013-04-11 09:46:00
5:51 AM,59.0,59.0,100,29.99,1.8,Calm,Calm,-,N/A,,Clear,0,2013-04-11 09:51:00
5:54 AM,57.9,57.9,100,29.99,1.0,Calm,Calm,-,N/A,,Mist,0,2013-04-11 09:54:00
6:01 AM,57.2,57.2,100,29.99,0.5,SSW,3.5,-,N/A,Fog,Fog,200,2013-04-11 10:01:00
6:54 AM,54.0,54.0,100,29.99,0.2,Calm,Calm,-,N/A,Fog,Fog,0,2013-04-11 10:54:00
7:30 AM,57.2,57.2,100,30.01,2.5,SE,3.5,-,N/A,,Mostly Cloudy,140,2013-04-11 11:30:00
7:35 AM,59.0,57.2,94,30.01,4.0,Calm,Calm,-,N/A,,Scattered Clouds,0,2013-04-11 11:35:00
7:54 AM,61.0,60.1,97,30.02,5.0,Calm,Calm,-,N/A,,Clear,0,2013-04-11 11:54:00
8:54 AM,66.0,64.9,96,30.03,10.0,SSW,6.9,-,0.01,,Partly Cloudy,210,2013-04-11 12:54:00
9:54 AM,72.0,66.0,81,30.01,10.0,SW,10.4,-,N/A,,Partly Cloudy,220,2013-04-11 13:54:00
10:19 AM,73.4,66.2,78,30.01,10.0,SSW,9.2,-,N/A,,Mostly Cloudy,210,2013-04-11 14:19:00
10:31 AM,73.4,66.2,78,30.01,10.0,SW,8.1,-,N/A,,Mostly Cloudy,230,2013-04-11 14:31:00
10:40 AM,73.4,66.2,78,30.01,10.0,SW,11.5,18.4,N/A,,Mostly Cloudy,230,2013-04-11 14:40:00
10:54 AM,73.9,66.9,79,30.01,10.0,SW,9.2,-,N/A,,Mostly Cloudy,230,2013-04-11 14:54:00
11:23 AM,73.4,64.4,73,30.01,10.0,SW,12.7,18.4,N/A,,Overcast,230,2013-04-11 15:23:00
11:54 AM,77.0,66.0,69,30.00,10.0,SW,11.5,18.4,N/A,,Scattered Clouds,230,2013-04-11 15:54:00
1:54 PM,81.0,63.0,54,29.94,10.0,WSW,10.4,19.6,N/A,,Partly Cloudy,250,2013-04-11 17:54:00
2:54 PM,81.0,61.0,50,29.91,10.0,SW,12.7,20.7,N/A,,Scattered Clouds,220,2013-04-11 18:54:00
3:54 PM,81.0,62.1,52,29.88,10.0,SW,6.9,-,N/A,,Mostly Cloudy,230,2013-04-11 19:54:00
4:54 PM,82.0,62.1,51,29.84,10.0,SSW,8.1,-,N/A,,Partly Cloudy,210,2013-04-11 20:54:00
5:54 PM,80.1,64.9,60,29.83,10.0,SSE,10.4,-,N/A,,Partly Cloudy,150,2013-04-11 21:54:00
6:54 PM,77.0,66.9,71,29.83,10.0,SSE,8.1,-,N/A,,Mostly Cloudy,160,2013-04-11 22:54:00
7:08 PM,73.4,69.8,88,29.84,1.5,SSW,4.6,18.4,0.06,Rain,Rain,200,2013-04-11 23:08:00
7:16 PM,75.2,69.8,83,29.83,2.0,Variable,4.6,-,0.06,Rain,Light Rain,0,2013-04-11 23:16:00
7:24 PM,73.4,69.8,88,29.83,10.0,Variable,3.5,-,0.06,,Overcast,0,2013-04-11 23:24:00
7:54 PM,73.9,66.0,76,29.84,10.0,South,11.5,17.3,0.06,,Scattered Clouds,190,2013-04-11 23:54:00
8:54 PM,73.0,66.0,79,29.85,10.0,South,11.5,18.4,N/A,,Mostly Cloudy,170,2013-04-12 00:54:00
9:54 PM,71.1,66.0,84,29.85,10.0,South,6.9,18.4,N/A,,Scattered Clouds,170,2013-04-12 01:54:00
10:18 PM,71.6,66.2,83,29.84,10.0,South,9.2,17.3,N/A,,Mostly Cloudy,170,2013-04-12 02:18:00
10:54 PM,71.1,66.9,87,29.84,10.0,SSE,8.1,17.3,N/A,,Overcast,160,2013-04-12 02:54:00
11:54 PM,72.0,66.9,84,29.85,10.0,SSW,9.2,16.1,N/A,,Overcast,200,2013-04-12 03:54:00